Weather History for Winchester, VA

Change the Weather History Date:

Saturday, December 8, 2012

  Actual Average Record
Temperature  
Mean Temperature 48 °F -  
Max Temperature 60 °F 46 °F 60 °F (2004)
Min Temperature 35 °F 31 °F 17 °F (2005)
Degree Days  
Heating Degree Days 18    
Moisture  
Dew Point 43 °F    
Average Humidity 92    
Maximum Humidity 100    
Minimum Humidity 68    
Precipitation  
Precipitation 0.03 in - - ()
Sea Level Pressure  
Sea Level Pressure 29.93 in    
Wind  
Wind Speed 0 mph (NE)    
Max Wind Speed 6 mph    
Max Gust Speed -    
Visibility 6 miles    
Events Rain    
Averages and records for this station are not official NWS values.
T = Trace of Precipitation, MM = Missing Value Source: NWS Daily Summary

Daily Weather History Graph

Daily Weather History Graph

Search for Another Location

Airport:

Trip Planner

Search our weather history database for the weather conditions in past years. The results will help you decide how hot, cold, wet, or windy it might be!

Date:

Astronomy

Dec. 08, 2012 Rise Set
Actual Time 7:19 AM EST 4:49 PM EST
Civil Twilight 6:49 AM EST 5:19 PM EST
Nautical Twilight 6:16 AM EST 5:53 PM EST
Astronomical Twilight 5:43 AM EST 6:25 PM EST
Moon 1:44 AM EST (12/8) 1:16 PM EST (12/8)
Length of Visible Light 10h 29m
Length of Day
9h 29m
Waning Crescent, 28% of the Moon is Illuminated
Dec 8
Waning Crescent
Dec 13
New
Dec 20
First Quarter
Dec 28
Full
Jan 4
Last Quarter

Hourly Weather History & Observations

Time (EST) Temp. Windchill Dew Point Humidity Pressure Visibility Wind Dir Wind Speed Gust Speed Precip Events Conditions
12:15 AM 37.4 °F - 37.4 °F 100% 29.95 in 5.0 mi Calm Calm - N/A   Scattered Clouds
12:35 AM 37.4 °F - 37.4 °F 100% 29.94 in 5.0 mi Calm Calm - N/A   Scattered Clouds
12:55 AM 37.4 °F - 37.4 °F 100% 29.94 in 5.0 mi Calm Calm - N/A   Scattered Clouds
1:15 AM 35.6 °F - 35.6 °F 100% 29.94 in 3.0 mi Calm Calm - N/A   Scattered Clouds
1:35 AM 37.4 °F - 37.4 °F 100% 29.93 in 4.0 mi Calm Calm - N/A   Clear
1:55 AM 37.4 °F - 37.4 °F 100% 29.93 in 5.0 mi Calm Calm - N/A   Mostly Cloudy
2:15 AM 37.4 °F - 37.4 °F 100% 29.93 in 5.0 mi Calm Calm - N/A   Mostly Cloudy
2:35 AM 37.4 °F - 37.4 °F 100% 29.93 in 4.0 mi Calm Calm - N/A   Mostly Cloudy
2:55 AM 37.4 °F - 37.4 °F 100% 29.93 in 4.0 mi Calm Calm - N/A   Mostly Cloudy
3:15 AM 37.4 °F - 37.4 °F 100% 29.92 in 4.0 mi Calm Calm - N/A   Scattered Clouds
3:35 AM 37.4 °F - 37.4 °F 100% 29.92 in 4.0 mi Calm Calm - N/A   Clear
3:55 AM 37.4 °F - 37.4 °F 100% 29.92 in 4.0 mi Calm Calm - N/A   Clear
4:15 AM 37.4 °F - 37.4 °F 100% 29.91 in 4.0 mi Calm Calm - N/A   Scattered Clouds
4:35 AM 37.4 °F - 37.4 °F 100% 29.92 in 4.0 mi Calm Calm - N/A   Scattered Clouds
4:55 AM 37.4 °F - 37.4 °F 100% 29.91 in 4.0 mi Calm Calm - N/A   Mostly Cloudy
5:15 AM 37.4 °F - 37.4 °F 100% 29.91 in 3.0 mi Calm Calm - N/A   Scattered Clouds
5:35 AM 35.6 °F - 35.6 °F 100% 29.92 in 3.0 mi Calm Calm - N/A   Clear
5:55 AM 35.6 °F - 35.6 °F 100% 29.91 in 3.0 mi Calm Calm - N/A   Scattered Clouds
6:15 AM 35.6 °F - 35.6 °F 100% 29.92 in 3.0 mi Calm Calm - N/A   Scattered Clouds
6:35 AM 35.6 °F - 35.6 °F 100% 29.93 in 3.0 mi Calm Calm - N/A   Scattered Clouds
6:55 AM 35.6 °F - 35.6 °F 100% 29.93 in 2.5 mi Calm Calm - N/A   Scattered Clouds
7:15 AM 35.6 °F - 35.6 °F 100% 29.93 in 3.0 mi Calm Calm - N/A   Mostly Cloudy
7:35 AM 37.4 °F - 37.4 °F 100% 29.93 in 2.5 mi Calm Calm - N/A   Overcast
7:55 AM 37.4 °F - 37.4 °F 100% 29.93 in 3.0 mi Calm Calm - N/A   Overcast
8:15 AM 37.4 °F - 37.4 °F 100% 29.93 in 4.0 mi Calm Calm - N/A   Overcast
8:35 AM 37.4 °F - 37.4 °F 100% 29.93 in 4.0 mi Calm Calm - N/A   Overcast
8:55 AM 37.4 °F - 37.4 °F 100% 29.93 in 4.0 mi Calm Calm - N/A   Overcast
9:15 AM 39.2 °F - 39.2 °F 100% 29.94 in 4.0 mi Calm Calm - N/A   Overcast
9:35 AM 39.2 °F - 39.2 °F 100% 29.95 in 5.0 mi Calm Calm - N/A   Mostly Cloudy
9:55 AM 41.0 °F - 41.0 °F 100% 29.94 in 5.0 mi Calm Calm - N/A   Overcast
10:15 AM 41.0 °F - 41.0 °F 100% 29.94 in 5.0 mi Calm Calm - N/A   Scattered Clouds
10:35 AM 42.8 °F - 41.0 °F 93% 29.93 in 7.0 mi Calm Calm - N/A   Mostly Cloudy
10:55 AM 44.6 °F - 42.8 °F 93% 29.92 in 7.0 mi Calm Calm - N/A   Overcast
11:15 AM 50.0 °F - 44.6 °F 82% 29.92 in 10.0 mi Calm Calm - N/A   Overcast
11:55 AM 53.6 °F - 48.2 °F 82% 29.90 in 10.0 mi SW 3.5 mph - N/A   Overcast
12:15 PM 55.4 °F - 48.2 °F 77% 29.89 in 10.0 mi SSE 3.5 mph - N/A   Overcast
12:35 PM 57.2 °F - 50.0 °F 77% 29.88 in 10.0 mi SSW 5.8 mph - N/A   Overcast
12:55 PM 55.4 °F - 50.0 °F 82% 29.88 in 10.0 mi Calm Calm - N/A   Overcast
1:15 PM 57.2 °F - 50.0 °F 77% 29.88 in 10.0 mi Calm Calm - N/A   Overcast
1:35 PM 59.0 °F - 50.0 °F 72% 29.87 in 10.0 mi SE 3.5 mph - N/A   Overcast
1:55 PM 59.0 °F - 50.0 °F 72% 29.86 in 10.0 mi Calm Calm - N/A   Mostly Cloudy
2:15 PM 60.8 °F - 50.0 °F 68% 29.86 in 10.0 mi Calm Calm - N/A   Clear
2:35 PM 60.8 °F - 50.0 °F 68% 29.86 in 10.0 mi SSE 3.5 mph - N/A   Mostly Cloudy
2:55 PM 59.0 °F - 50.0 °F 72% 29.87 in 10.0 mi Calm Calm - N/A   Mostly Cloudy
3:15 PM 59.0 °F - 51.8 °F 77% 29.87 in 10.0 mi Calm Calm - N/A   Overcast
3:35 PM 59.0 °F - 50.0 °F 72% 29.88 in 10.0 mi NNE 3.5 mph - N/A   Overcast
3:55 PM 57.2 °F - 50.0 °F 77% 29.88 in 10.0 mi Calm Calm - N/A   Overcast
4:15 PM 55.4 °F - 50.0 °F 82% 29.89 in 10.0 mi Calm Calm - N/A   Scattered Clouds
4:35 PM 55.4 °F - 50.0 °F 82% 29.88 in 10.0 mi Calm Calm - N/A   Scattered Clouds
4:55 PM 53.6 °F - 50.0 °F 88% 29.90 in 10.0 mi Calm Calm - N/A   Mostly Cloudy
5:15 PM 53.6 °F - 48.2 °F 82% 29.90 in 10.0 mi Calm Calm - N/A   Overcast
5:35 PM 53.6 °F - 46.4 °F 77% 29.91 in 10.0 mi Calm Calm - N/A   Overcast
5:55 PM 51.8 °F - 46.4 °F 82% 29.92 in 10.0 mi NE 3.5 mph - N/A   Overcast
6:15 PM 51.8 °F - 46.4 °F 82% 29.92 in 10.0 mi Calm Calm - N/A   Overcast
6:35 PM 51.8 °F - 46.4 °F 82% 29.92 in 10.0 mi Calm Calm - N/A   Overcast
6:55 PM 51.8 °F - 46.4 °F 82% 29.93 in 10.0 mi Calm Calm - N/A Rain Light Rain
7:15 PM 50.0 °F - 46.4 °F 87% 29.94 in 10.0 mi Calm Calm - N/A   Overcast
7:35 PM 50.0 °F - 46.4 °F 87% 29.95 in 10.0 mi NNW 3.5 mph - N/A   Overcast
7:55 PM 51.8 °F - 48.2 °F 88% 29.96 in 7.0 mi North 5.8 mph - 0.01 in Rain Heavy Rain
8:15 PM 51.8 °F - 50.0 °F 94% 29.96 in 7.0 mi Calm Calm - N/A   Overcast
8:35 PM 50.0 °F - 50.0 °F 100% 29.97 in 5.0 mi Calm Calm - 0.01 in Rain Light Rain
8:55 PM 50.0 °F - 50.0 °F 100% 29.98 in 4.0 mi Calm Calm - 0.01 in   Light Drizzle
9:15 PM 50.0 °F - 50.0 °F 100% 29.98 in 5.0 mi ENE 3.5 mph - N/A Rain Rain
9:35 PM 48.2 °F - 48.2 °F 100% 29.99 in 5.0 mi ENE 3.5 mph - N/A Rain Light Rain
9:55 PM 48.2 °F - 48.2 °F 100% 29.99 in 5.0 mi Calm Calm - 0.01 in Rain Rain
10:15 PM 46.4 °F 45.2 °F 46.4 °F 100% 30.00 in 5.0 mi NNW 3.5 mph - N/A   Overcast
10:35 PM 46.4 °F - 46.4 °F 100% 30.00 in 5.0 mi Calm Calm - N/A   Overcast
10:55 PM 46.4 °F - 46.4 °F 100% 30.01 in 5.0 mi Calm Calm - N/A   Overcast
11:15 PM 48.2 °F - 48.2 °F 100% 30.02 in 5.0 mi Calm Calm - N/A   Overcast
11:35 PM 48.2 °F - 48.2 °F 100% 30.02 in 5.0 mi Calm Calm - N/A   Light Drizzle
11:55 PM 48.2 °F - 48.2 °F 100% 30.03 in 4.0 mi NW 4.6 mph - N/A Rain Rain